Showing default

IRIDIUM 117, 42808

Orbit data source: Space-Track

IRIDIUM 117, 42808 is a payload satellite owned by Iridium (US) in LEO that was launched on Sun, 25 Jun 2017 UTC via an FALCON 9 launch vehicle from the Air Force Western Test Range (AFWTR). Payload-class satellites include a variety of spacecraft equipped with specific instruments for various scientific and technological missions. These include communications satellites like Starlink; space stations such as the ISS; scientific satellites like the Hubble; Earth observation satellites from companies like Planet Labs, Umbra, and HawkEye 360; GPS; miniature CubeSats for education and research; and military/defense satellites.

Loading next visibility...
Identifier
42808, 2017-039F
Orbit
LEO
Country
Flag of USUS
Related business
Manufacturer
OATK SSG Gilbert
Mission
Operational Commercial Communications
Bus & Motor
ELITEBUS, Unknown motor
Mass
860 kg wet, 700 kg dry
Launch date (UTC)
2017-06-25 (9 years ago)
Launch vehicle
FALCON 9
Launch site
Air Force Western Test Range (AFWTR)
Object type
Payload
Rocket body
Debris
Shape & HBR
Trap Box + 2 Pan, 4.8 m
Radar Cross Section
10.154 m², Large (>1 m²)

Expand to show TLE details & history
Last TLE update: 6 hours ago

TLE from 6 hours ago
0 IRIDIUM 117
1 42808U 17039F   26125.42494167  .00000059  00000-0  14116-4 0  9996
2 42808  86.4005  11.4662 0002306  86.0202 274.1258 14.34217878463845
Epoch: 2026-05-05T10:11Z
TLE epoch observation values (Epoch: 2026-05-05T10:11:54.960Z)
Latitude
0.00005°
Longitude
-4.81277°
Altitude
780.599 km
Speed
7.464 km/s
True Right ascension
00h 45m 51s
True Declination
0° 00' 00"
Sunlit
Object was in daylight at epoch
Visualization orbit readout
Latitude
Unknown
Longitude
Unknown
Altitude
Unknown
Speed
Unknown
Apparent Right ascension
Unknown
Apparent Declination
Unknown
Sunlit
N/A
Visualization observer readout
Local Sidereal Time
23:47:18
Azimuth
Unknown
Elevation
Unknown
Doppler factor
Unknown
Orbital elements
Apogee altitude
776.281 km
Perigee altitude
772.982 km
Semi-major axis
7,152.768 km
Eccentricity
0.00023
Inclination
86.4005°
RAAN
11.4662°
Arg. of periapsis
86.0202°
True anomaly
274.09944°
Mean anomaly
274.1258°
Eccentric anomaly
274.11262°
Mean motion
3.58783 °/min
Orbital period
100.34 mins
BSTAR
0.000014116
Loading maneuver chart data...
Computing Atmospheric mass density...
Loading historical data...
Loading historical data...
Loading historical data...
Loading historical data...
Loading historical data...
Loading historical data...
Loading historical data...

Documentation

Showing up to 5 results
|